[[{"header":{"parameterUnit":"m.s-1","parameterCategory":1,"la1":30.2991,"la2":30.254,"lo1":-89.0895,"lo2":-89.0444,"dy":0.0017,"dx":0.0017,"nx":28,"ny":28,"refTime":"2023-10-08T09:00:00:Z","depth":0,"parameterNumber":2,"parameterNumberName":"U-component_of_WINDS"},"data":[0,0,0,0,0,0,0,0,0,0,0,0,0,0,0,0,0,0,0,0,0,0,0,0,0,0,0,0,0,0,0,0,0,0,0,0,0,0,0,0,0,0,0,0,0,0,0,0,0,0,0,0,0,0,0,0,0,0,-1.5006,-1.5007,0,-1.5093,-1.5094,-1.5095,-1.5014,-1.5011,-1.5007,-1.5004,-1.5096,-1.5101,-1.5107,0,0,0,0,0,0,0,0,0,0,0,0,0,-1.4771,-1.4775,-1.5006,-1.5007,-1.5008,-1.5093,-1.5094,-1.5095,-1.5014,-1.5011,-1.5007,-1.5003,-1.5094,-1.5101,-1.5107,0,0,0,0,0,0,0,0,0,0,0,0,0,-1.4867,-1.4777,-1.5005,-1.4978,-1.4976,-1.5093,-1.5094,-1.5095,-1.5015,-1.501,-1.5006,-1.5001,-1.5092,-1.51,-1.5108,-1.5257,0,0,-1.5133,-1.5137,0,0,0,0,0,0,0,0,-1.4862,-1.4876,-1.4981,-1.498,-1.4978,-1.5037,-1.5045,-1.515,-1.5017,-1.5001,-1.5004,-1.4999,-1.5081,-1.509,-1.5117,-1.5261,-1.5265,-1.5134,-1.5139,-1.5143,-1.5145,0,0,0,0,0,0,0,-1.4855,-1.4871,-1.504,-1.4982,-1.4981,-1.4961,-1.497,-1.5064,-1.5067,-1.5002,-1.4996,-1.5007,-1.5079,-1.5109,-1.5118,-1.5267,-1.5134,-1.5141,-1.5146,-1.5149,-1.5538,-1.5544,0,0,0,0,0,0,-1.4851,-1.4866,-1.5037,-1.5043,-1.4907,-1.497,-1.4979,-1.5023,-1.5066,-1.5068,-1.5011,-1.5003,-1.5097,-1.5109,-1.5121,-1.53,-1.5143,-1.515,-1.5155,-1.5533,-1.554,-1.5545,0,0,0,0,0,0,-1.4846,-1.4867,-1.5034,-1.4953,-1.4973,-1.4979,-1.503,-1.5028,-1.5058,-1.5073,-1.5073,-1.5041,-1.5094,-1.511,-1.5224,-1.5302,-1.5154,-1.5161,-1.5527,-1.5535,-1.5543,-1.5658,0,0,0,0,0,0,-1.484,-1.4866,-1.4922,-1.4955,-1.4977,-1.5135,-1.5034,-1.5033,-1.5072,-1.5062,-1.5101,-1.5103,-1.5091,-1.5212,-1.5232,-1.5311,-1.5168,-1.552,-1.553,-1.554,-1.5647,-1.5669,-1.5687,0,0,0,0,0,-1.4832,-1.4952,-1.4926,-1.4947,-1.5048,-1.514,-1.5153,-1.5136,-1.5078,-1.5136,-1.5145,-1.5102,-1.5289,-1.5224,-1.5246,-1.5329,-1.5515,-1.5527,-1.5539,-1.5638,-1.5665,-1.5687,0,0,0,0,0,0,-1.493,-1.4956,-1.4927,-1.5061,-1.5099,-1.5126,-1.5198,-1.5164,-1.522,-1.5209,-1.5185,-1.5195,-1.5317,-1.5333,-1.5261,-1.5475,-1.5393,-1.541,-1.5461,-1.5486,-1.5505,-1.5501,-1.5175,0,0,0,0,0,-1.4966,-1.5038,-1.5057,-1.5173,-1.5193,-1.5193,-1.5232,-1.5215,-1.5254,-1.527,-1.5288,-1.5328,-1.5395,-1.5441,-1.5504,-1.5647,-1.5656,-1.5714,-1.5734,-1.5751,-1.5767,-1.5846,-1.5873,-1.5585,-1.5585,-1.5585,0,0,-1.5044,-1.5067,-1.5114,-1.5194,-1.5221,-1.5297,-1.5207,-1.5291,-1.5347,-1.5283,-1.5393,-1.5407,-1.5449,-1.558,-1.5638,-1.5597,-1.5848,-1.5766,-1.5779,-1.5787,-1.5861,-1.5889,-1.5913,-1.5593,-1.5592,-1.5591,0,0,-1.5225,-1.5248,-1.5349,-1.5377,-1.5419,-1.5418,-1.5442,-1.5474,-1.5481,-1.559,-1.5544,-1.561,-1.5726,-1.5759,-1.5791,-1.5982,-1.5945,-1.6003,-1.611,-1.6187,-1.6209,-1.623,-1.63,-1.6326,-1.6018,-1.6018,-1.6019,0,-1.5317,-1.5429,-1.5405,-1.5492,-1.5529,-1.5472,-1.5574,-1.5603,-1.5665,-1.5692,-1.5644,-1.579,-1.5814,-1.5952,-1.5999,-1.6025,-1.6053,-1.6001,-1.6208,-1.6228,-1.6246,-1.6313,-1.634,-1.6025,-1.6025,-1.6024,-1.6023,0,-1.554,-1.5618,-1.5694,-1.5754,-1.5799,-1.5893,-1.5884,-1.5932,-1.5911,-1.5914,-1.6026,-1.6053,-1.6121,-1.6151,-1.6132,-1.6287,-1.626,-1.6211,-1.6129,-1.6281,-1.6344,-1.6369,-1.6036,-1.6033,-1.6031,-1.6029,0,0,-1.5789,-1.5833,-1.5861,-1.5888,-1.5929,-1.599,-1.6081,-1.6146,-1.6189,-1.6232,-1.6309,-1.6408,-1.6362,-1.6399,-1.6381,-1.6448,-1.6601,-1.6391,-1.6391,-1.6432,-1.6776,-1.6816,-1.6846,-1.6574,-1.6579,-1.6583,-1.6773,0,-1.5974,-1.6133,-1.6113,-1.6266,-1.6338,-1.6284,-1.6364,-1.6398,-1.6403,-1.6465,-1.647,-1.6542,-1.6474,-1.6496,-1.656,-1.6569,-1.667,-1.6554,-1.6649,-1.6652,-1.6644,-1.6878,-1.6921,-1.7099,-1.6797,-1.6801,-1.6804,0,-1.6212,-1.6263,-1.6423,-1.6452,-1.6482,-1.6554,-1.6613,-1.6672,-1.671,-1.6708,-1.6748,-1.6719,-1.6811,-1.6723,-1.6851,-1.6773,-1.6809,-1.6819,-1.6825,-1.6837,-1.6741,-1.69,-1.7156,-1.7184,-1.6842,-1.6839,-1.6837,0,-1.6381,-1.6489,-1.6599,-1.6623,-1.666,-1.6712,-1.673,-1.6762,-1.6803,-1.6853,-1.688,-1.694,-1.6975,-1.7023,-1.7011,-1.6947,-1.7142,-1.7053,-1.7145,-1.7146,-1.7193,-1.7191,-1.7462,-1.721,-1.7209,-1.7209,-1.7208,0,-1.6592,-1.6693,-1.6676,-1.6744,-1.6855,-1.6831,-1.6942,-1.6952,-1.6981,-1.7051,-1.7006,-1.7073,-1.7051,-1.7116,-1.7107,-1.7215,-1.723,-1.7233,-1.723,-1.7239,-1.724,-1.7266,-1.7255,-1.7216,-1.7214,-1.7213,-1.7212,0,-1.6802,-1.6795,-1.6912,-1.6936,-1.6944,-1.7026,-1.7047,-1.7111,-1.711,-1.7199,-1.7219,-1.7219,-1.7294,-1.7285,-1.7368,-1.7361,-1.7497,-1.7477,-1.7485,-1.7482,-1.7576,-1.7569,-1.7878,-1.7918,-1.7636,-1.7639,-1.7641,0,-1.694,-1.7016,-1.7048,-1.7091,-1.7113,-1.7182,-1.7223,-1.7201,-1.7246,-1.7293,-1.7352,-1.7422,-1.7478,-1.7599,-1.7607,-1.7671,-1.7654,-1.7758,-1.7664,-1.7671,-1.766,-1.7657,-1.7666,-1.7778,-1.7781,-1.7784,-1.7786,0,-1.7185,-1.7177,-1.7237,-1.7297,-1.7347,-1.7393,-1.7434,-1.7472,-1.7453,-1.7505,-1.7581,-1.7623,-1.7708,-1.7779,-1.7838,-1.7856,-1.782,-1.7814,-1.784,-1.7853,-1.7856,-1.7859,-1.754,-1.7809,-1.7807,-1.7805,-1.7804,-1.7803,-1.7365,-1.7431,-1.7464,-1.7533,-1.7561,-1.76,-1.7662,-1.7669,-1.7731,-1.7798,-1.778,-1.7866,-1.79,-1.7976,-1.8001,-1.8068,-1.803,-1.8066,-1.8076,-1.8087,-1.8099,-1.7841,-1.8078,-1.8077,-1.8077,-1.8076,-1.8076,0,-1.7612,-1.7629,-1.7693,-1.7752,-1.7806,-1.7763,-1.7806,-1.7855,-1.7931,-1.7965,-1.802,-1.8107,-1.8175,-1.8187,-1.8252,-1.8303,-1.8288,-1.8321,-1.832,-1.8325,-1.8128,-1.8101,-1.8333,-1.8333,-1.8333,-1.8333,-1.8333,-1.8333,-1.7746,-1.7856,-1.7852,-1.7974,-1.7991,-1.8075,-1.8103,-1.8139,-1.8167,-1.8266,-1.8322,-1.8328,-1.8355,-1.8421,-1.8481,-1.8483,-1.8511,-1.8552,-1.8548,-1.8364,-1.8339,-1.8314,-1.8289,-1.8557,-1.8557,-1.874,-1.8741,-1.8743]},{"header":{"parameterUnit":"m.s-1","parameterCategory":1,"la1":30.2991,"la2":30.254,"lo1":-89.0895,"lo2":-89.0444,"dy":0.0017,"dx":0.0017,"nx":28,"ny":28,"refTime":"2023-10-08T09:00:00:Z","depth":0,"parameterNumber":3,"parameterNumberName":"V-component_of_WINDS"},"data":[0,0,0,0,0,0,0,0,0,0,0,0,0,0,0,0,0,0,0,0,0,0,0,0,0,0,0,0,0,0,0,0,0,0,0,0,0,0,0,0,0,0,0,0,0,0,0,0,0,0,0,0,0,0,0,0,0,0,-5.9543,-5.9544,0,-5.967,-5.9671,-5.9673,-5.9587,-5.9584,-5.958,-5.9576,-5.97,-5.9707,-5.9714,0,0,0,0,0,0,0,0,0,0,0,0,0,-5.9219,-5.9225,-5.9543,-5.9544,-5.9546,-5.967,-5.9671,-5.9673,-5.9588,-5.9583,-5.9579,-5.9574,-5.9698,-5.9706,-5.9715,0,0,0,0,0,0,0,0,0,0,0,0,0,-5.9354,-5.9227,-5.9542,-5.9518,-5.9518,-5.9669,-5.9671,-5.9674,-5.9589,-5.9583,-5.9577,-5.9572,-5.9695,-5.9705,-5.9716,-5.9896,0,0,-5.9747,-5.9752,0,0,0,0,0,0,0,0,-5.9347,-5.9366,-5.952,-5.952,-5.952,-5.9607,-5.9603,-5.9748,-5.9591,-5.9562,-5.9576,-5.9569,-5.9674,-5.9685,-5.9722,-5.9902,-5.9907,-5.9748,-5.9755,-5.9759,-5.9762,0,0,0,0,0,0,0,-5.9337,-5.936,-5.9593,-5.9523,-5.9522,-5.9499,-5.9512,-5.963,-5.9648,-5.9564,-5.9558,-5.9575,-5.9672,-5.9712,-5.9724,-5.9909,-5.9748,-5.9757,-5.9764,-5.9768,-6.0242,-6.0248,0,0,0,0,0,0,-5.9331,-5.9353,-5.9589,-5.9596,-5.9417,-5.951,-5.9524,-5.9585,-5.9647,-5.9651,-5.9579,-5.957,-5.9697,-5.9712,-5.9728,-5.9943,-5.9759,-5.9769,-5.9775,-6.0235,-6.0243,-6.025,0,0,0,0,0,0,-5.9324,-5.9353,-5.9583,-5.9473,-5.9501,-5.9521,-5.959,-5.959,-5.963,-5.9659,-5.9661,-5.9617,-5.9693,-5.9713,-5.9855,-5.9946,-5.9773,-5.9783,-6.0228,-6.0238,-6.0247,-6.0374,0,0,0,0,0,0,-5.9315,-5.9351,-5.9421,-5.9476,-5.9507,-5.9711,-5.9596,-5.9597,-5.9649,-5.9638,-5.9695,-5.9699,-5.969,-5.984,-5.9865,-5.9957,-5.9791,-6.022,-6.0232,-6.0244,-6.0362,-6.0387,-6.0408,0,0,0,0,0,-5.9304,-5.9451,-5.9426,-5.9454,-5.9596,-5.9716,-5.9734,-5.9723,-5.9657,-5.9727,-5.9745,-5.9697,-5.9932,-5.9855,-5.9883,-5.9979,-6.0214,-6.0229,-6.0243,-6.0352,-6.0382,-6.0408,0,0,0,0,0,0,-5.9405,-5.9458,-5.943,-5.96,-5.9655,-5.9702,-5.979,-5.9756,-5.9829,-5.9816,-5.9797,-5.981,-5.9958,-5.9983,-5.9896,-6.0156,-6.0062,-6.0083,-6.0135,-6.0165,-6.0187,-6.0178,-5.98,0,0,0,0,0,-5.9448,-5.9543,-5.9583,-5.9729,-5.9758,-5.977,-5.9821,-5.9808,-5.9863,-5.9885,-5.9914,-5.9968,-6.0053,-6.011,-6.0191,-6.0365,-6.0375,-6.0444,-6.0467,-6.0486,-6.0504,-6.0597,-6.0628,-6.0297,-6.0297,-6.0297,0,0,-5.9536,-5.9576,-5.9637,-5.975,-5.9791,-5.9888,-5.9789,-5.9896,-5.9968,-5.9901,-6.0037,-6.006,-6.0118,-6.0277,-6.0348,-6.0301,-6.0598,-6.0505,-6.052,-6.0527,-6.0615,-6.0646,-6.0674,-6.0307,-6.0305,-6.0303,0,0,-5.9746,-5.9787,-5.9912,-5.9956,-6.0019,-6.0026,-6.0056,-6.0109,-6.0122,-6.0259,-6.021,-6.0293,-6.0442,-6.0485,-6.0527,-6.0752,-6.071,-6.0778,-6.0899,-6.099,-6.1016,-6.1039,-6.1118,-6.1147,-6.0796,-6.0797,-6.0797,0,-5.9847,-5.9993,-5.998,-6.0092,-6.0142,-6.0088,-6.0213,-6.0255,-6.0341,-6.0376,-6.0323,-6.0508,-6.0543,-6.071,-6.0766,-6.0801,-6.0833,-6.0772,-6.1014,-6.1036,-6.1058,-6.1133,-6.1163,-6.0804,-6.0803,-6.0803,-6.0802,0,-6.0113,-6.0216,-6.0309,-6.0396,-6.0456,-6.0574,-6.0577,-6.0639,-6.062,-6.0632,-6.077,-6.0811,-6.0898,-6.0936,-6.0919,-6.1101,-6.107,-6.1016,-6.0921,-6.1097,-6.1168,-6.1197,-6.0816,-6.0813,-6.081,-6.0809,0,0,-6.0392,-6.047,-6.0504,-6.0542,-6.0608,-6.0686,-6.08,-6.0887,-6.094,-6.1001,-6.1095,-6.1222,-6.1172,-6.1219,-6.1205,-6.1285,-6.1459,-6.122,-6.1221,-6.1263,-6.1661,-6.1702,-6.1736,-6.1432,-6.1437,-6.1442,-6.1656,0,-6.0605,-6.0807,-6.0798,-6.0986,-6.1079,-6.1028,-6.1127,-6.1177,-6.119,-6.1269,-6.1283,-6.1373,-6.1301,-6.1329,-6.1405,-6.1422,-6.1539,-6.1406,-6.1517,-6.1521,-6.1505,-6.1773,-6.1816,-6.2017,-6.1684,-6.1689,-6.1692,0,-6.0881,-6.0953,-6.1151,-6.1202,-6.1241,-6.1331,-6.1409,-6.1486,-6.1541,-6.1545,-6.1598,-6.1571,-6.1683,-6.1586,-6.174,-6.165,-6.1694,-6.1709,-6.1717,-6.1727,-6.1618,-6.1789,-6.2081,-6.2111,-6.1736,-6.1732,-6.1729,0,-6.1063,-6.1209,-6.1346,-6.1381,-6.1444,-6.1508,-6.1537,-6.1586,-6.1639,-6.1707,-6.174,-6.182,-6.1863,-6.1924,-6.1919,-6.1848,-6.2075,-6.1977,-6.208,-6.208,-6.213,-6.2127,-6.2432,-6.2159,-6.2159,-6.2158,-6.2158,0,-6.1302,-6.1425,-6.1429,-6.1514,-6.1649,-6.1636,-6.1769,-6.1791,-6.1835,-6.1921,-6.1881,-6.1962,-6.1949,-6.203,-6.2025,-6.2153,-6.2173,-6.2178,-6.2175,-6.2182,-6.2181,-6.2211,-6.2196,-6.2166,-6.2165,-6.2163,-6.2162,0,-6.1529,-6.1537,-6.1683,-6.1731,-6.1746,-6.1844,-6.1884,-6.1962,-6.1972,-6.2081,-6.2106,-6.212,-6.2213,-6.2213,-6.2318,-6.2315,-6.2472,-6.2453,-6.2454,-6.245,-6.2553,-6.2543,-6.2888,-6.2932,-6.2631,-6.2634,-6.2636,0,-6.1681,-6.1775,-6.1834,-6.1889,-6.1923,-6.2013,-6.2067,-6.2057,-6.2114,-6.2183,-6.2253,-6.2342,-6.2413,-6.2562,-6.2581,-6.2661,-6.2644,-6.2759,-6.2655,-6.2658,-6.2645,-6.2639,-6.2648,-6.2779,-6.2782,-6.2785,-6.2787,0,-6.195,-6.1949,-6.203,-6.2112,-6.2178,-6.2241,-6.23,-6.2347,-6.2343,-6.2409,-6.2505,-6.256,-6.2668,-6.2756,-6.2833,-6.286,-6.2823,-6.282,-6.2848,-6.2855,-6.2852,-6.2854,-6.2509,-6.2812,-6.2809,-6.2808,-6.2806,-6.2805,-6.2144,-6.2224,-6.2278,-6.2369,-6.2412,-6.2468,-6.2544,-6.2564,-6.2644,-6.2732,-6.272,-6.2826,-6.2876,-6.2976,-6.301,-6.3091,-6.305,-6.3091,-6.3101,-6.3111,-6.3122,-6.2839,-6.3105,-6.3104,-6.3103,-6.3103,-6.3102,0,-6.241,-6.2443,-6.2526,-6.261,-6.2681,-6.2642,-6.2704,-6.2765,-6.286,-6.291,-6.2981,-6.309,-6.3175,-6.32,-6.3282,-6.3342,-6.3327,-6.3364,-6.3359,-6.3366,-6.3154,-6.3122,-6.3374,-6.3374,-6.3374,-6.3374,-6.3374,-6.3374,-6.2557,-6.2691,-6.2697,-6.285,-6.2881,-6.2986,-6.3025,-6.3075,-6.3116,-6.3239,-6.3311,-6.3327,-6.3367,-6.3452,-6.3527,-6.3532,-6.3564,-6.3608,-6.3606,-6.3408,-6.3381,-6.3354,-6.3324,-6.3615,-6.3615,-6.381,-6.3812,-6.3813]}]]